This is the latest recevied weather packets stored in our database for station/object KC8QDR-1. If no packets are shown the sender has not sent any weather packets the latest 1 day(s).
| Time | Temp. | Humidity | Pressure | Rain* | Wind** | Luminosity | Snow |
|---|---|---|---|---|---|---|---|
| 1778017125 | 16.67° C | 86% | 1016.7 hPa | 0 mm | 0 m/s | - | - |
| 1778016525 | 16.67° C | 84% | 1016.9 hPa | 0 mm | 1.79 m/s, 355° | - | - |
| 1778015925 | 17.22° C | 83% | 1017.1 hPa | 0 mm | 1.79 m/s, 359° | - | - |
| 1778015325 | 17.78° C | 79% | 1017.2 hPa | 0 mm | 0.45 m/s, 276° | - | - |
| 1778014883 | 17.78° C | 78% | 1017.1 hPa | 0 mm | 0 m/s | - | - |
| 1778014725 | 17.78° C | 78% | 1017.1 hPa | 0 mm | 0 m/s | - | - |
| 1778014125 | 17.78° C | 76% | 1016.7 hPa | 0 mm | 1.34 m/s, 324° | - | - |
| 1778013525 | 18.33° C | 74% | 1016.6 hPa | 0 mm | 0.89 m/s, 18° | - | - |
| 1778012924 | 18.89° C | 72% | 1016.6 hPa | 0 mm | 0.89 m/s, 347° | - | - |
| 1778011729 | 18.89° C | 69% | 1016.8 hPa | 0 mm | 0 m/s | - | - |
| 1778011125 | 18.89° C | 70% | 1016.7 hPa | 0 mm | 0.45 m/s, 338° | - | - |
| 1778010525 | 18.89° C | 70% | 1016.7 hPa | 0 mm | 0.45 m/s, 279° | - | - |
| 1778009925 | 18.33° C | 71% | 1016.8 hPa | 0 mm | 0 m/s | - | - |
| 1778009324 | 18.33° C | 72% | 1016.9 hPa | 0 mm | 0 m/s | - | - |
| 1778008727 | 18.89° C | 70% | 1017.1 hPa | 0 mm | 0 m/s | - | - |
| 1778008125 | 19.44° C | 65% | 1017.1 hPa | 0 mm | 1.34 m/s, 217° | - | - |
| 1778007525 | 20° C | 63% | 1016.9 hPa | 0 mm | 0 m/s | - | - |
| 1778006925 | 20° C | 62% | 1016.8 hPa | 0 mm | 0.89 m/s, 182° | - | - |
| 1778006325 | 20° C | 61% | 1016.7 hPa | 0 mm | 0.45 m/s, 282° | - | - |
| 1778005725 | 20° C | 60% | 1016.6 hPa | 0 mm | 0.89 m/s, 204° | - | - |
| 1778005125 | 20° C | 62% | 1016.4 hPa | 0 mm | 0 m/s | - | - |
| 1778004524 | 20° C | 62% | 1016.3 hPa | 0 mm | 1.79 m/s, 214° | - | - |
| 1778003925 | 20.56° C | 62% | 1016.1 hPa | 0 mm | 0.45 m/s, 200° | - | - |
| 1778003325 | 20° C | 63% | 1016 hPa | 0 mm | 2.68 m/s, 213° | - | - |
| 1778002725 | 20.56° C | 61% | 1016 hPa | 0 mm | 1.34 m/s, 200° | - | - |
* Rain latest hour (hover to see other rain measurements)
** Current wind speed in m/s (hover to see current wind gust speed)